Wind_Speed
20 20 19 18 18 17 17 17 17 17 17 17 17 17 16 16 16 16 16 15 14 14 13 12 12 11 11 11 11 11 11 11 10 11 11 10 10 10 9 9 9 9 8 8 8 9 9 8 8 9 10 10 11 12 12 12 12 11 11 11 11 11 12 12 13 13 13 12 11 11 11 11 11 11 12 12 13 13 14 15 15 16 17 18 18 19 19 20
24 23 23 22 21 21 20 19 19 18 18 18 18 18 18 18 18 17 17 17 17 16 15 15 14 13 13 13 13 12 12 12 12 12 12 11 11 11 11 10 10 10 10 10 10 10 11 11 10 10 10 10 11 11 11 12 12 12 12 12 12 12 12 13 13 14 14 14 13 14 14 13 12 12 13 12 13 14 14 15 15 16 17 17 18 19 19 20
27 26 26 26 25 24 24 23 22 22 21 21 20 20 20 20 20 19 19 19 19 19 18 17 17 16 15 15 15 15 15 14 14 13 13 13 12 12 12 12 12 11 11 11 11 11 11 11 11 11 11 11 11 11 11 12 12 13 13 13 13 13 13 14 14 13 14 14 15 16 16 16 15 14 14 13 14 15 15 15 14 15 16 16 18 19 19 20
29 29 29 29 28 28 27 26 26 25 24 24 24 23 23 23 22 22 22 21 21 21 21 20 20 19 18 18 17 17 17 17 16 16 15 14 14 13 13 13 13 13 13 13 13 13 12 12 12 12 12 12 12 12 12 12 13 13 13 13 14 14 14 15 14 14 14 14 15 16 18 18 18 18 17 16 16 17 17 17 16 17 17 17 18 19 19 20
31 31 31 31 31 31 30 30 29 28 28 27 27 26 26 26 25 25 24 24 23 23 23 23 22 22 21 20 20 19 19 19 19 18 18 17 16 16 15 15 15 15 15 15 15 15 15 14 14 14 14 14 14 14 13 14 14 14 14 14 15 15 15 15 15 15 15 15 16 16 18 19 19 19 20 19 19 19 20 20 19 19 19 19 19 19 20 21
32 32 33 33 33 33 33 32 32 31 31 30 30 29 29 28 28 27 27 27 26 26 25 25 25 24 24 23 23 22 22 22 21 21 21 20 19 18 18 18 17 17 17 17 17 17 17 16 16 16 15 15 15 15 15 15 15 16 16 16 16 16 16 16 16 16 17 17 17 17 18 19 19 20 21 21 20 20 21 22 22 22 22 22 22 22 22 22
32 33 34 34 34 35 35 35 35 34 33 33 32 32 31 31 30 30 30 29 29 28 28 27 27 26 26 26 25 25 24 24 23 23 23 23 22 21 20 20 20 20 20 20 19 19 19 19 19 18 18 17 17 17 17 17 17 17 18 18 18 18 18 18 17 17 18 18 18 18 19 19 20 21 21 21 21 21 21 22 23 24 25 25 24 24 24 24
32 33 33 34 35 36 36 36 36 36 36 35 34 34 34 33 33 32 32 31 31 30 30 29 29 28 28 28 28 27 27 26 26 26 26 25 25 24 23 23 22 22 22 22 22 22 22 22 21 21 20 20 20 20 19 19 19 19 19 20 20 20 20 19 19 19 18 19 18 18 19 19 20 21 22 22 21 21 22 23 24 25 26 26 26 26 26 26
31 32 33 34 35 36 36 37 37 37 37 37 37 36 36 36 35 35 34 34 33 32 32 31 31 30 30 30 30 30 29 29 29 28 28 27 27 27 26 26 25 25 25 25 25 25 25 25 24 24 23 22 22 22 22 22 21 21 21 21 22 22 22 22 21 21 20 20 19 18 20 20 20 22 23 22 21 22 23 23 24 25 26 27 27 28 28 28
31 31 32 33 34 35 36 37 37 38 38 38 38 38 38 38 38 37 37 36 35 35 34 33 33 32 32 32 31 32 31 31 31 30 30 29 29 29 28 28 28 27 27 27 27 28 28 28 27 27 27 26 25 25 25 25 24 24 24 23 24 24 24 24 24 24 23 22 21 18 19 20 20 22 24 23 23 23 24 25 25 25 26 27 28 28 29 29
31 31 32 33 34 35 35 36 37 37 38 38 38 38 38 39 39 39 39 38 38 37 36 35 35 34 34 33 33 33 33 33 33 32 32 31 31 31 30 30 30 30 30 29 29 30 30 30 30 30 30 29 28 27 27 27 27 27 27 26 26 26 26 26 27 26 26 25 24 20 18 18 18 21 25 25 24 24 25 26 27 26 27 28 28 29 29 30
32 32 32 33 33 34 35 35 36 37 38 38 38 38 38 39 39 40 40 40 40 39 39 38 37 36 36 35 34 35 35 34 34 34 34 33 33 33 32 32 32 32 32 32 31 31 32 32 32 32 32 32 31 31 30 29 29 29 30 29 28 28 28 28 29 28 28 28 28 25 16 13 18 23 27 28 26 25 26 28 28 27 28 28 29 29 30 31
33 33 33 33 33 34 34 35 36 36 37 38 39 39 39 39 40 40 40 40 41 40 40 40 39 39 38 36 36 37 36 36 36 36 35 35 35 34 34 34 34 34 34 34 33 33 33 33 34 34 33 34 33 33 33 32 32 32 32 31 30 30 29 30 31 30 30 30 30 31 18 9 17 25 28 31 29 27 27 29 30 29 29 29 30 30 30 31
35 35 34 34 34 34 34 34 35 36 37 38 38 39 40 40 40 41 41 41 41 41 41 41 41 41 40 38 38 38 37 37 37 37 37 37 36 36 36 37 37 37 36 36 36 36 35 35 35 34 34 35 35 35 35 34 34 35 35 33 33 33 32 31 33 33 33 32 32 34 26 12 15 24 28 31 31 30 29 30 31 30 30 31 31 31 31 31
36 36 36 36 35 35 35 35 35 36 36 37 38 39 39 40 40 41 42 42 42 42 42 42 42 43 42 40 40 40 39 39 39 38 38 38 38 38 38 39 39 39 39 38 38 38 37 37 36 35 35 35 36 36 35 36 36 36 36 36 35 35 35 33 34 36 36 36 34 35 33 20 16 22 28 30 31 31 30 31 33 32 32 32 33 33 31 32
37 37 38 37 37 37 37 37 36 36 37 38 38 39 40 39 40 41 42 42 43 43 43 43 43 44 43 41 41 41 40 40 40 39 39 39 39 39 39 40 40 40 40 40 40 39 39 38 37 37 37 36 36 36 37 39 36 36 37 38 37 37 38 36 36 38 39 39 37 37 37 28 21 22 26 29 31 31 31 32 34 34 33 34 36 35 33 33
38 39 39 39 39 39 39 39 38 38 38 38 39 39 40 40 40 40 41 42 43 43 44 44 43 45 44 42 41 41 41 41 41 40 40 40 40 40 40 40 40 41 41 41 40 40 40 39 38 38 38 37 36 37 41 41 37 37 39 39 39 40 40 39 38 40 42 42 40 39 40 34 27 24 25 29 32 32 31 33 35 35 35 36 37 36 34 34
39 39 40 40 40 41 41 41 40 40 39 39 40 40 41 41 41 40 41 42 42 43 44 43 44 45 44 41 41 41 42 42 41 41 41 41 41 41 41 41 41 41 41 41 41 41 41 41 40 39 38 37 37 40 43 41 39 40 41 41 41 41 42 40 40 43 44 45 42 42 43 39 32 27 27 30 34 34 33 34 36 36 36 36 37 36 35 36
42 41 40 40 41 42 43 43 42 42 41 41 42 42 42 42 42 41 41 42 42 43 44 43 44 45 44 42 42 42 42 42 41 41 41 42 42 42 41 41 41 41 40 41 41 41 42 42 41 40 38 38 39 42 43 42 41 42 42 43 43 43 42 40 42 45 45 47 45 43 46 43 37 32 30 32 36 36 35 36 36 36 36 36 37 37 36 36
44 43 42 42 42 42 43 43 43 43 43 44 44 44 44 44 44 44 43 43 43 44 44 44 44 44 44 43 43 43 42 42 42 42 42 42 42 43 43 42 41 41 40 41 42 42 42 43 41 39 39 40 42 43 43 43 43 44 43 44 44 44 43 41 44 46 46 49 47 44 48 46 40 37 33 34 38 37 36 37 37 36 37 37 37 36 36 36
46 45 44 44 44 44 44 44 44 45 45 46 46 47 47 47 47 46 45 45 45 45 45 45 46 45 44 44 44 44 42 41 41 41 41 42 43 44 43 42 42 42 40 42 43 43 44 44 40 39 41 42 44 44 44 44 45 45 45 45 45 45 44 43 45 46 46 49 48 46 48 46 41 40 36 34 37 38 37 38 37 36 37 36 36 36 35 36
47 47 46 46 46 46 46 45 45 45 46 47 48 48 49 49 50 50 49 49 47 47 47 47 47 46 45 45 45 43 42 40 39 39 40 41 42 43 43 42 42 42 41 42 43 44 44 43 39 39 41 42 43 43 44 44 45 45 46 46 45 44 45 45 45 45 46 48 48 47 49 47 41 41 38 35 36 38 39 40 39 36 35 34 33 33 34 36
49 48 48 47 47 48 48 47 47 46 46 48 49 50 51 51 52 52 54 55 52 49 49 49 49 49 47 47 45 44 42 40 40 39 39 40 41 42 43 42 42 42 41 41 42 44 43 40 37 38 40 40 41 41 42 43 44 44 45 45 45 43 46 47 45 44 45 47 48 48 50 47 42 41 39 36 36 36 37 40 39 36 35 33 31 31 33 34
51 50 50 49 49 50 49 49 49 48 47 47 48 50 52 52 53 54 55 59 59 54 51 52 53 52 50 49 47 45 43 42 41 40 39 41 42 43 43 41 42 42 40 40 42 44 42 39 38 39 39 40 40 40 41 42 43 44 43 43 43 44 45 47 46 45 45 46 46 49 53 48 43 44 40 38 38 35 34 35 37 38 36 32 29 29 31 33
52 52 52 51 51 51 51 51 50 49 49 48 48 48 50 52 53 55 57 62 65 60 54 55 55 54 52 51 49 47 46 44 43 42 42 43 44 45 44 43 44 43 41 42 46 47 44 40 40 40 40 41 42 42 41 43 45 45 43 42 43 45 45 45 46 46 47 46 45 48 54 51 47 46 43 41 41 37 33 31 32 37 38 33 29 29 30 32
53 53 53 53 53 53 53 53 52 51 51 50 49 49 49 50 51 53 56 63 68 65 60 59 57 55 53 51 49 48 48 47 44 43 44 45 46 48 48 47 47 47 46 47 50 50 45 42 43 43 43 44 44 42 41 43 46 47 43 42 43 45 45 46 46 47 49 49 48 49 52 54 54 51 46 45 43 38 34 31 28 32 38 36 30 29 31 33
52 53 53 54 54 54 54 54 54 53 53 52 52 51 50 50 50 50 53 60 67 66 64 63 60 58 54 51 49 48 49 47 45 46 46 47 48 49 49 49 48 49 49 50 52 51 47 45 45 45 45 45 43 42 41 42 46 47 44 43 44 44 45 46 47 49 50 52 53 50 49 56 61 56 50 48 44 38 34 32 30 30 36 37 32 31 33 36
52 52 53 53 54 55 55 55 55 55 55 54 53 53 52 51 51 51 53 60 67 66 63 62 61 59 55 52 50 47 47 47 46 47 46 46 47 48 49 48 48 50 50 52 54 51 48 48 47 46 45 44 42 41 41 42 46 47 46 45 44 45 46 48 49 51 51 54 56 50 47 57 64 59 54 48 41 38 35 33 32 30 32 36 35 35 36 38
52 52 52 52 53 54 55 55 56 56 56 55 54 54 53 52 53 53 55 63 69 66 62 59 57 57 56 53 51 48 47 47 47 48 47 47 47 48 48 48 49 50 50 52 52 50 49 48 46 46 44 43 42 42 42 43 46 47 47 47 46 47 48 50 51 52 53 56 57 51 49 57 62 58 51 45 41 41 39 33 30 29 31 33 36 39 39 40
54 54 53 53 53 54 54 55 55 56 56 55 55 54 54 54 54 56 62 68 69 65 63 60 57 55 53 52 50 50 50 49 49 49 48 47 47 48 48 48 49 50 50 51 50 48 47 47 46 45 44 43 43 44 44 45 46 47 48 49 49 50 51 53 53 53 54 57 56 51 50 55 60 55 47 44 44 44 39 33 30 31 32 34 37 39 39 40
55 55 55 55 55 55 55 55 56 56 56 56 56 56 56 56 57 61 68 70 66 64 63 62 57 54 51 50 49 49 49 50 49 49 49 49 49 50 50 49 49 50 50 51 49 46 47 47 46 45 44 44 44 45 45 46 47 48 50 50 51 53 54 55 55 53 55 57 55 53 52 56 60 54 48 48 48 44 38 33 31 32 34 37 39 37 35 37
56 56 56 56 56 57 57 57 56 56 57 57 57 58 58 58 62 67 69 67 65 64 62 59 57 55 53 52 50 49 49 49 49 50 50 50 52 53 52 51 51 51 51 51 49 48 49 49 48 47 46 45 45 45 46 48 48 48 49 49 51 54 56 57 55 54 56 57 56 55 57 60 60 53 50 50 49 45 41 37 34 34 36 38 39 34 33 37
58 58 58 58 58 58 58 58 58 58 59 58 58 58 58 62 68 69 67 64 64 63 60 58 58 57 56 55 53 51 50 50 50 51 51 52 54 54 54 53 52 51 51 51 50 51 52 51 50 49 47 46 46 46 47 48 48 49 50 50 52 55 56 56 55 57 59 59 57 58 61 62 57 52 51 54 52 47 44 42 40 38 37 37 36 33 34 39
59 60 60 60 60 60 60 60 60 61 61 61 60 60 61 65 69 67 64 63 63 62 61 61 60 58 58 58 57 54 53 52 51 52 52 53 55 55 54 54 52 51 51 51 52 53 54 55 53 50 48 48 48 48 49 49 50 51 51 51 55 55 54 55 56 58 61 60 60 61 63 61 57 54 56 59 57 50 46 46 44 40 37 36 35 34 34 37
60 61 61 61 61 61 62 62 62 62 62 61 61 62 63 64 64 62 61 61 61 61 61 61 60 59 59 60 59 58 56 55 54 54 54 55 55 55 55 54 52 52 52 53 54 54 56 58 56 53 52 51 50 49 49 50 52 53 52 54 55 53 52 54 57 58 59 60 61 63 63 60 57 58 61 62 59 52 50 49 45 40 37 35 35 33 31 33
62 62 62 61 60 61 62 63 63 63 63 62 63 64 63 63 63 63 63 62 62 62 62 62 61 61 62 62 61 60 59 58 57 56 57 56 56 55 55 54 53 53 53 53 53 53 55 58 56 55 54 52 50 50 49 51 53 54 54 55 54 52 53 56 57 55 56 59 61 62 63 62 60 62 64 63 59 53 50 47 42 40 37 36 36 33 30 33
66 66 66 62 60 61 62 63 65 67 67 68 69 66 63 63 63 64 64 65 66 66 66 66 65 64 64 63 62 62 63 62 60 59 59 58 58 57 56 55 54 54 53 52 51 52 54 55 55 55 55 54 52 51 52 54 55 56 56 55 54 55 57 57 56 56 57 61 62 62 63 65 65 67 66 63 59 53 48 43 39 37 36 35 35 34 33 35
69 71 71 66 63 64 64 64 66 68 69 72 71 66 64 64 63 63 65 66 66 67 68 68 66 63 62 60 60 62 64 64 63 62 61 60 61 60 57 56 56 54 52 51 52 52 53 55 56 57 58 56 55 55 57 58 58 59 59 58 58 58 58 57 58 59 60 63 66 65 65 67 68 69 69 63 57 52 46 40 37 35 35 36 35 33 34 36
71 73 74 69 67 69 68 68 68 68 70 72 70 66 64 63 62 61 62 63 63 64 65 66 65 64 63 62 60 60 61 62 61 62 62 62 62 61 59 58 58 56 54 53 55 55 55 57 58 59 59 58 58 59 60 60 61 62 61 62 62 61 61 60 61 62 62 64 67 66 66 68 68 70 69 60 52 47 41 37 36 35 37 39 36 34 36 39
72 74 74 70 70 72 72 72 72 72 73 72 68 66 65 64 63 62 61 62 62 64 65 66 67 68 67 65 63 61 61 61 60 60 61 60 60 59 57 57 57 56 55 56 57 57 57 58 59 58 59 59 59 58 57 57 60 62 63 63 63 63 63 64 65 64 64 66 66 65 68 69 68 69 65 55 49 45 39 37 36 37 41 43 40 39 41 43
73 74 74 71 71 71 71 73 73 73 74 72 70 69 68 68 67 65 64 64 64 66 68 69 70 70 69 68 66 65 63 62 61 60 60 59 58 57 55 54 53 52 53 55 56 56 56 58 58 57 58 58 56 55 56 58 60 62 63 62 62 63 64 66 67 63 63 65 64 66 70 70 68 65 57 51 49 45 42 43 41 41 45 46 44 44 46 46
71 73 74 73 72 71 71 73 72 69 69 67 67 68 68 69 68 67 68 68 67 68 69 69 68 68 67 66 63 61 60 60 59 60 62 61 59 58 56 54 53 53 54 56 56 56 58 60 60 60 60 57 55 54 56 59 61 63 64 62 61 61 61 65 66 63 63 64 65 69 73 72 68 57 46 46 47 47 48 48 45 45 47 47 46 49 50 47
71 72 73 75 74 73 75 78 76 73 68 64 63 63 62 63 63 64 67 67 66 65 62 61 60 59 58 58 58 58 58 59 60 61 62 62 61 59 56 55 56 56 57 59 59 58 59 61 61 61 60 57 55 55 57 60 62 64 64 60 58 58 57 61 64 65 66 64 64 71 75 72 64 51 43 46 48 48 50 49 47 48 49 48 50 53 52 49
77 76 76 76 75 75 77 81 82 81 77 73 72 69 66 66 65 64 65 66 65 63 59 59 60 58 56 56 57 57 57 59 60 60 60 61 61 59 58 59 60 61 62 63 64 62 62 63 62 61 62 60 58 58 59 60 61 62 60 57 56 55 55 58 62 63 65 64 62 68 74 70 62 52 48 49 49 49 49 49 51 52 51 51 54 56 55 52
82 82 82 81 82 82 81 80 81 83 83 82 82 81 79 79 76 72 73 74 73 72 71 71 72 70 67 65 64 63 61 61 62 63 63 64 63 62 62 62 62 61 62 63 64 64 64 64 65 65 67 67 65 62 60 61 62 61 59 57 56 55 55 59 59 60 66 67 65 69 75 72 62 54 51 52 53 53 52 54 56 55 53 55 56 57 56 54
85 85 86 86 87 90 89 86 84 85 83 81 82 83 83 84 82 79 80 81 80 80 81 81 81 79 78 76 74 73 71 69 69 70 68 66 65 64 63 60 58 57 59 60 62 63 64 66 67 68 71 72 67 61 59 61 62 60 58 57 57 57 58 60 62 65 70 72 70 71 73 71 63 56 54 56 58 58 55 57 58 54 54 56 57 57 56 55
91 91 91 89 89 90 92 91 90 90 87 84 84 82 79 79 78 78 81 82 82 81 82 82 80 79 80 79 78 79 78 77 78 77 74 70 69 69 69 67 65 61 59 59 60 62 66 67 65 65 68 69 65 60 58 61 64 63 62 62 62 62 62 63 67 70 69 71 74 71 68 70 67 61 61 61 59 56 54 54 55 54 55 56 57 58 57 56
96 96 95 94 94 94 94 92 92 93 95 95 95 92 88 85 82 81 81 82 83 81 80 79 77 76 76 76 76 78 78 77 79 78 75 73 71 72 73 72 69 65 61 60 62 64 67 68 66 66 69 68 66 63 60 61 65 65 64 64 62 60 60 63 68 70 67 71 77 73 69 69 67 65 65 62 57 55 54 53 53 54 55 55 58 60 59 58
95 96 96 97 99 100 99 97 96 97 98 99 99 98 96 94 92 89 85 84 86 86 85 84 79 74 73 74 76 77 73 71 71 72 71 70 68 68 69 69 68 67 65 65 66 66 67 68 66 65 65 63 60 59 58 60 62 61 59 56 53 53 56 61 66 67 66 71 74 70 66 65 64 65 64 59 57 58 57 56 55 54 55 57 60 60 59 58
92 92 92 93 96 98 99 98 98 99 100 100 100 100 98 95 94 92 89 87 86 86 86 86 83 78 76 77 79 78 75 71 69 68 69 71 69 67 68 68 68 68 68 66 65 65 67 67 64 62 65 67 66 67 68 67 65 63 59 54 51 53 56 59 62 63 64 69 69 65 64 64 62 61 60 59 59 58 56 56 54 52 54 58 61 60 58 58
91 91 89 88 90 91 92 94 95 96 98 99 100 100 100 98 96 93 92 92 91 89 86 86 86 85 83 83 83 79 75 73 72 71 70 70 70 68 67 65 64 65 64 61 60 62 62 62 62 64 70 75 76 77 75 69 65 64 63 62 62 63 64 66 68 69 71 72 70 69 70 70 66 63 65 66 62 58 58 56 53 51 52 56 59 58 57 58
90 90 89 87 87 87 86 87 88 90 93 97 99 100 100 99 96 94 94 95 95 93 91 89 89 89 89 90 87 80 75 74 75 75 74 75 75 76 75 73 72 73 70 65 64 64 64 65 65 66 71 75 76 75 71 67 67 69 70 70 70 68 69 72 76 76 74 73 74 77 78 75 71 71 73 71 67 66 64 59 56 56 56 57 58 57 57 58
Wind_Direction
254 254 255 255 254 255 256 257 258 260 261 262 263 264 264 267 269 272 275 276 277 278 280 281 282 283 285 287 290 293 297 301 307 312 318 321 325 334 341 342 340 338 333 329 329 330 333 333 333 336 336 339 341 341 339 335 330 326 325 322 319 318 316 317 317 315 314 313 312 312 315 316 318 320 318 319 319 317 318 319 319 315 311 311 309 306 304 302
254 255 255 256 257 257 257 257 259 260 262 264 265 266 267 268 269 270 273 275 276 277 277 277 278 278 278 280 281 283 286 288 292 297 301 305 310 318 324 328 330 330 329 326 325 325 326 325 327 331 331 333 336 335 335 332 330 328 327 324 321 319 317 316 315 314 313 313 312 312 313 314 317 318 317 319 318 318 319 319 319 314 311 312 309 306 305 303
254 254 255 255 256 257 257 257 257 258 259 261 263 264 266 266 268 268 269 271 273 275 276 276 276 275 275 275 275 277 278 279 282 284 287 290 296 303 308 312 315 318 320 319 318 318 318 318 320 321 322 326 328 329 329 328 326 326 326 326 324 324 322 319 317 315 312 312 312 312 312 312 315 316 315 317 317 318 319 319 319 315 312 313 309 306 304 302
253 254 254 255 255 256 256 256 256 256 256 258 259 260 262 263 264 265 266 266 268 270 272 273 274 273 273 272 272 272 273 274 275 276 279 281 285 291 294 297 302 305 308 310 311 311 312 313 313 313 315 318 320 321 323 323 322 321 322 323 322 323 324 323 323 321 318 315 314 313 313 312 314 314 314 314 315 316 316 316 317 315 314 315 312 310 307 304
255 255 255 255 255 255 255 255 256 256 256 256 257 258 259 260 261 262 263 263 264 265 267 268 270 270 270 270 269 269 270 271 273 274 275 275 278 281 283 285 290 293 297 300 302 304 306 308 308 309 310 312 313 314 316 317 317 316 316 318 318 319 321 321 322 323 322 320 318 317 315 314 315 314 313 314 314 314 313 313 313 313 313 313 313 312 310 309
257 257 257 257 256 256 256 256 256 256 256 256 256 257 257 258 259 260 261 262 262 262 263 264 266 267 268 268 267 267 267 268 270 271 272 273 274 275 276 278 281 285 287 290 293 295 298 300 302 303 305 305 306 307 309 310 311 312 313 314 314 314 316 317 318 319 320 318 319 320 318 317 317 315 314 315 315 314 313 312 312 311 311 311 311 311 311 310
258 258 258 258 258 258 258 257 257 257 257 257 257 257 257 257 258 258 259 260 260 261 261 261 262 264 265 265 265 265 264 265 266 267 269 270 271 271 272 274 275 278 281 283 286 288 290 292 294 297 298 298 299 300 303 305 306 308 310 311 311 312 313 313 314 315 316 315 317 318 317 318 317 315 314 314 315 315 314 313 313 313 312 312 311 311 310 309
258 258 258 259 259 259 259 259 259 259 259 259 259 260 260 259 259 258 258 258 259 259 260 260 261 261 262 263 264 264 263 263 263 264 265 266 268 269 270 271 272 273 276 278 281 282 284 286 288 290 292 293 295 296 299 301 302 303 305 307 308 310 311 311 312 312 313 313 314 316 314 316 315 313 311 312 314 314 314 314 314 315 314 313 312 312 311 310
258 258 258 258 259 259 259 260 260 260 260 260 260 261 262 262 262 261 260 260 260 259 260 260 261 261 261 261 262 263 263 264 264 263 264 265 266 267 269 270 270 272 273 275 277 279 280 282 284 285 287 290 292 294 296 297 299 300 300 302 304 306 308 309 309 309 311 310 312 314 314 316 315 309 307 309 312 313 312 312 313 314 314 312 312 312 313 311
258 259 259 259 259 259 259 260 260 261 261 261 261 262 263 263 264 264 264 263 263 262 262 261 262 262 262 262 263 264 264 265 265 265 265 266 266 267 269 270 271 271 272 274 275 277 278 280 281 283 284 286 288 291 293 295 296 296 297 298 299 302 304 305 306 306 307 307 308 311 313 318 315 305 304 308 310 310 310 309 310 311 310 309 310 311 312 311
257 258 259 260 260 260 260 260 260 261 261 261 261 261 262 264 264 265 266 266 266 266 265 264 264 264 264 263 264 265 266 266 267 267 268 268 268 269 270 271 272 272 274 274 275 276 277 279 280 281 282 284 286 287 289 292 294 294 294 295 296 298 300 301 302 302 303 303 304 304 311 321 317 306 304 308 310 309 309 307 306 307 306 306 307 308 309 309
257 257 258 259 260 261 261 261 261 262 262 262 262 262 262 263 264 265 266 267 268 269 269 269 268 267 267 266 266 266 267 267 268 269 270 270 271 271 272 272 273 274 275 276 277 277 278 279 280 280 282 283 284 285 286 288 290 292 292 293 294 295 297 297 297 298 299 299 299 299 305 323 318 311 308 308 310 311 310 306 304 304 303 303 304 305 306 305
259 259 259 260 260 261 261 262 263 263 264 263 263 263 263 263 264 265 265 267 268 269 270 270 271 271 270 270 270 268 269 269 269 270 271 271 272 273 274 274 275 276 276 277 278 278 279 280 280 281 282 282 283 284 285 286 287 288 289 291 292 292 294 295 295 296 296 295 295 295 297 313 312 309 307 306 309 311 310 306 304 303 301 301 301 301 302 302
261 261 261 262 262 262 262 262 263 264 265 265 265 265 265 264 264 265 266 267 267 268 269 270 271 272 272 273 273 272 272 272 272 272 272 273 274 275 275 276 276 277 277 278 279 280 280 281 281 281 282 282 283 283 284 284 284 285 287 289 290 291 292 293 293 293 293 292 293 293 293 296 303 302 301 303 307 309 309 306 304 302 301 300 298 298 299 299
262 263 263 263 264 264 264 263 263 264 264 265 266 266 266 266 266 266 267 267 267 268 269 270 271 271 272 273 274 275 275 275 275 275 275 275 276 277 277 277 277 278 278 279 279 280 281 281 282 282 282 282 283 283 284 282 281 283 285 286 288 289 290 291 291 292 291 290 290 291 292 294 298 296 296 300 303 305 307 306 303 302 300 298 296 297 297 297
262 263 263 263 264 265 265 265 264 264 265 265 266 267 267 267 267 267 267 267 267 268 268 269 270 271 271 272 273 275 276 276 276 276 277 278 278 278 278 278 278 279 279 280 280 280 281 281 282 282 282 283 284 285 282 279 281 283 283 284 285 287 288 289 290 290 289 289 289 290 290 293 296 295 296 299 300 302 304 303 301 301 299 297 296 297 297 295
263 263 264 264 264 264 265 265 265 265 265 266 266 267 267 267 267 267 268 268 268 268 268 268 269 269 270 271 272 273 274 275 276 277 278 278 278 278 278 278 279 279 280 280 281 281 281 280 281 281 282 284 285 284 281 281 284 283 282 283 284 286 286 288 289 288 287 288 289 289 289 291 294 296 298 299 299 301 304 302 299 298 298 296 295 296 295 293
263 264 265 265 265 265 265 264 265 265 266 266 267 267 267 268 267 267 267 268 268 268 268 269 269 269 270 271 271 271 272 273 275 277 277 278 278 278 279 279 279 280 280 280 281 281 281 281 281 281 283 284 283 281 281 284 284 283 283 283 283 284 285 287 288 286 286 287 288 289 288 289 291 296 299 300 299 301 304 302 298 297 296 295 295 295 293 291
263 264 265 266 267 266 266 266 266 266 266 267 267 267 267 267 267 267 266 267 267 268 268 268 268 269 270 271 271 271 271 273 275 276 277 278 279 279 280 280 280 280 280 281 280 280 280 281 281 282 284 283 280 280 283 284 283 283 283 283 283 283 284 287 286 285 286 286 287 289 288 288 291 295 299 300 298 301 304 301 299 298 296 294 294 293 291 289
262 263 264 265 267 267 268 268 267 267 267 267 267 267 267 267 267 267 266 266 266 266 267 268 267 268 269 270 270 271 272 273 275 276 278 279 280 280 279 280 280 280 280 280 279 279 280 279 281 283 283 281 280 282 283 283 283 283 283 283 284 284 285 286 285 284 286 286 287 289 287 287 291 295 298 300 300 301 302 300 299 298 295 294 293 292 291 289
261 262 263 264 266 267 268 269 268 267 267 266 267 267 267 267 267 267 266 265 265 265 266 267 267 267 268 269 269 270 272 272 274 276 278 279 279 279 279 280 280 279 279 279 279 279 279 279 282 284 282 281 282 282 283 284 284 284 284 284 284 285 286 285 284 285 286 286 287 288 286 286 291 294 297 300 301 302 301 300 299 297 296 295 291 290 290 290
260 261 262 263 265 267 268 269 269 268 267 267 266 267 267 267 268 268 267 266 264 265 265 265 266 267 267 267 268 270 271 272 273 275 277 278 279 280 280 280 280 280 279 279 280 280 279 281 284 283 281 282 283 284 285 285 285 285 286 286 286 287 287 285 284 286 287 287 288 288 285 286 290 293 295 300 301 302 302 300 298 298 297 293 289 288 289 289
260 261 261 262 264 265 267 269 269 270 269 268 267 266 266 266 267 268 268 267 265 263 264 265 266 266 266 267 268 269 269 271 273 274 276 278 279 280 280 281 280 279 279 280 281 280 280 283 284 283 283 284 285 286 287 287 287 287 286 287 288 288 287 286 287 287 287 288 289 289 287 287 290 292 295 298 299 300 301 299 300 301 296 291 290 290 289 289
261 261 262 262 263 265 266 268 269 270 270 270 269 268 267 267 267 267 268 268 266 263 263 265 265 266 266 267 268 269 270 271 272 273 275 276 277 278 279 280 279 279 280 281 280 279 280 284 284 283 284 285 286 286 287 288 287 286 286 288 289 288 287 288 289 289 289 289 290 291 290 289 291 293 294 297 298 299 298 300 304 302 296 293 294 292 291 291
262 262 263 263 264 265 267 268 270 271 272 272 272 272 271 270 268 268 267 268 268 265 263 263 264 264 266 268 269 270 271 271 272 274 275 275 276 276 277 277 278 279 280 280 279 279 281 283 284 284 285 285 285 286 287 288 287 286 286 287 288 287 287 288 290 291 290 291 292 293 293 294 293 293 294 298 300 300 302 306 305 299 295 296 298 296 293 292
263 263 263 263 264 266 267 269 270 271 272 273 273 274 274 274 273 271 270 269 269 268 265 263 262 263 264 267 269 271 271 272 274 274 274 274 274 274 275 275 277 279 279 278 278 279 281 283 283 284 284 283 284 285 286 286 285 284 286 287 286 286 288 289 290 290 291 292 293 293 297 298 294 292 296 300 301 302 308 311 304 294 292 294 298 297 294 291
265 264 264 264 264 265 266 268 269 270 272 273 274 274 275 276 276 276 275 273 271 270 268 265 264 264 264 265 267 269 272 274 275 274 273 273 273 273 274 275 276 276 276 276 276 278 281 281 281 282 282 282 283 285 285 283 282 284 285 284 284 286 287 288 289 289 290 292 292 293 299 299 293 293 298 299 300 305 311 311 305 295 289 292 298 297 294 292
265 265 265 265 265 266 266 268 269 270 271 272 273 274 274 276 277 278 278 276 273 272 271 270 270 269 268 268 268 269 270 272 272 272 272 273 273 273 274 275 275 274 274 274 275 278 280 280 280 280 280 281 283 283 282 281 281 283 284 284 285 286 285 286 287 288 290 290 290 295 301 296 290 292 296 297 302 307 309 309 305 297 289 292 298 298 295 292
265 265 265 266 266 266 266 267 268 269 270 271 271 272 273 274 275 276 275 273 272 273 275 276 276 276 276 275 274 273 272 271 271 271 271 272 272 273 273 273 273 272 273 273 274 277 278 279 279 279 279 281 282 281 281 280 280 282 284 285 285 285 285 286 285 287 289 289 291 297 299 294 290 291 294 300 307 307 309 311 306 298 293 295 299 299 298 294
265 265 265 265 265 266 266 267 268 268 269 270 270 271 271 271 272 272 270 269 270 274 278 279 281 283 284 283 281 277 273 272 271 272 272 272 271 272 272 271 272 272 272 272 274 276 277 277 277 278 280 280 279 280 281 281 282 283 285 285 286 286 285 285 285 287 289 289 293 297 295 291 289 290 298 305 306 306 310 312 307 301 299 300 300 299 298 294
266 265 265 265 265 265 265 266 267 268 268 269 269 270 269 269 269 267 267 269 272 275 277 280 284 287 288 287 284 280 276 273 271 271 272 272 271 271 270 271 271 272 272 272 274 275 275 274 275 276 276 277 278 280 281 281 282 283 284 284 285 284 283 283 284 287 288 290 293 294 291 287 284 289 300 304 303 306 309 310 308 304 303 303 301 299 297 292
267 266 266 265 265 265 265 265 266 267 267 268 268 268 268 268 266 265 267 271 274 276 278 282 285 286 286 285 284 283 280 276 273 271 271 271 271 271 271 271 271 271 272 273 274 274 272 272 272 273 274 276 278 279 279 279 280 280 280 281 281 281 281 282 285 288 288 288 290 290 287 284 283 290 298 300 300 303 306 309 308 305 304 303 299 298 296 290
268 268 267 266 265 265 265 265 265 265 266 267 266 267 267 267 266 266 268 271 274 277 281 282 282 283 283 283 283 282 281 278 275 272 270 269 269 270 271 272 272 272 273 274 273 272 272 272 272 274 276 277 277 278 278 278 278 277 277 277 277 278 280 283 287 288 286 286 287 286 284 283 286 293 297 296 296 299 304 307 307 306 303 299 296 297 294 290
270 270 269 267 266 266 266 266 266 266 266 266 266 266 265 265 267 270 272 273 275 277 279 279 280 281 281 281 280 279 279 278 276 274 272 270 270 270 271 272 273 274 274 274 274 274 275 274 275 277 278 277 278 278 277 277 276 275 275 275 274 276 280 284 286 285 285 287 286 283 282 284 290 295 294 293 294 299 305 306 306 306 302 297 296 297 293 289
268 269 268 267 267 266 266 267 267 267 266 266 266 264 264 268 272 275 277 277 277 277 277 277 278 279 278 278 279 279 279 278 277 276 274 272 271 271 271 271 273 274 274 275 276 277 278 277 277 279 279 278 277 276 276 276 275 275 275 274 276 281 283 282 282 284 286 286 284 284 284 286 291 292 289 290 294 301 305 306 307 307 303 298 296 297 294 288
266 265 265 266 266 266 266 266 266 266 264 263 262 262 266 272 275 277 278 278 277 277 277 278 278 279 279 278 278 278 278 278 277 276 274 273 272 272 272 273 274 274 275 276 276 277 277 276 277 277 277 276 275 275 274 274 275 275 275 277 281 284 282 280 282 284 285 283 284 286 287 288 290 287 286 289 295 301 306 309 310 307 303 298 295 296 293 287
265 265 265 264 263 263 264 264 264 264 264 263 263 265 270 272 272 274 276 276 277 278 279 279 280 280 279 278 277 277 277 276 275 274 274 273 272 271 272 274 275 275 276 277 276 276 276 276 276 275 275 275 274 275 275 274 275 275 277 281 282 280 278 279 282 282 281 281 283 285 288 289 288 286 286 290 296 304 310 313 310 305 299 295 293 294 291 288
265 265 264 263 263 262 262 262 262 263 264 264 264 266 269 271 272 273 272 273 275 277 277 277 277 277 277 276 276 275 275 274 273 273 274 273 272 271 272 274 274 275 277 277 276 276 277 277 275 274 274 275 276 277 276 276 277 278 279 279 277 276 277 277 278 279 279 280 281 284 286 285 283 283 284 289 298 308 313 314 309 302 295 291 292 292 290 289
265 265 265 265 265 264 263 262 263 263 263 263 264 265 267 269 270 270 269 271 272 272 272 272 273 274 275 275 275 275 275 274 273 272 272 273 273 272 272 273 274 275 276 276 276 276 276 275 274 273 274 275 275 275 276 279 279 278 277 276 275 276 276 276 276 277 278 278 280 284 283 280 280 281 283 290 301 308 311 310 306 300 295 294 295 294 292 290
264 264 264 265 265 265 264 262 261 260 260 261 263 265 265 266 266 266 267 269 269 269 270 271 272 274 274 274 275 275 276 276 275 274 272 272 273 273 273 274 275 276 275 275 274 274 273 272 273 273 273 273 275 277 279 280 278 276 274 274 275 275 275 277 277 278 278 278 281 285 282 279 280 281 286 296 302 304 305 304 304 303 299 298 298 295 293 291
264 263 263 263 262 262 263 262 261 260 260 261 262 263 263 263 263 264 265 267 269 269 269 270 271 273 273 274 274 274 275 275 276 275 273 272 273 273 274 275 276 276 275 273 273 273 272 272 272 272 272 273 276 277 276 275 275 275 275 275 275 275 275 274 275 279 281 280 283 284 280 279 281 284 293 301 303 302 301 301 304 304 300 299 298 293 290 290
260 260 261 261 259 258 259 259 259 258 259 259 260 260 260 261 260 260 262 264 265 266 267 269 271 272 273 274 274 274 273 273 273 272 272 272 272 273 276 277 277 276 275 273 273 273 273 272 271 271 272 274 275 274 273 273 273 273 274 276 278 278 277 275 276 281 281 280 281 278 276 279 283 289 299 302 300 301 299 301 304 301 299 300 297 291 287 290
257 257 258 258 256 256 256 256 256 255 255 256 256 255 255 256 256 257 259 260 262 263 264 267 269 269 271 272 273 272 271 270 270 269 270 271 271 274 276 276 276 276 275 274 274 274 272 270 270 271 271 272 273 274 273 273 273 274 276 279 280 281 282 280 279 279 278 277 278 276 276 279 285 295 303 300 298 297 297 300 301 298 298 298 294 289 287 291
255 256 256 255 254 253 253 255 256 257 256 255 255 253 253 254 254 255 256 257 259 260 259 261 264 265 267 267 268 269 269 267 267 268 269 271 273 275 276 276 276 275 275 274 274 273 271 270 271 271 271 271 272 272 273 274 276 277 277 278 278 280 281 279 278 278 277 276 277 276 278 282 289 297 301 297 294 293 295 299 297 295 296 293 290 289 288 290
254 255 256 256 255 253 252 253 256 258 257 256 256 255 255 256 256 255 256 257 259 260 260 260 262 263 265 265 266 267 267 267 268 270 271 273 275 276 277 276 275 275 274 273 272 272 271 271 271 270 270 271 272 273 275 277 276 273 272 272 273 275 276 277 278 277 276 277 278 278 282 287 292 295 296 294 292 293 295 296 293 292 292 288 286 287 288 289
253 253 254 255 256 257 256 255 255 256 256 256 256 256 257 259 259 258 258 258 258 260 261 262 263 264 265 264 265 265 265 267 270 271 271 273 275 276 276 275 273 274 275 273 272 272 271 271 271 271 271 272 274 275 275 273 270 268 267 268 270 272 273 275 275 275 277 280 280 281 286 290 292 294 293 291 292 295 296 293 290 288 286 284 284 286 289 288
253 253 253 254 256 257 258 258 257 257 256 256 257 257 256 258 259 258 258 259 259 260 262 262 263 264 264 265 265 264 264 265 267 268 269 271 274 275 274 273 272 274 274 272 270 270 271 271 272 273 274 274 274 274 271 268 268 267 268 269 270 271 272 273 274 276 279 280 280 283 287 291 293 293 290 290 294 296 293 289 287 284 281 281 282 285 288 286
255 255 255 255 256 257 258 259 259 259 259 259 260 259 257 257 257 257 257 259 259 260 262 263 262 262 264 266 266 266 265 265 266 267 269 270 271 271 270 269 270 270 270 269 270 272 273 273 273 275 275 273 272 272 269 268 269 270 270 271 270 271 272 273 274 276 278 279 282 286 288 289 290 290 290 292 295 293 288 286 284 284 283 281 281 283 285 284
256 257 257 257 257 258 259 260 260 260 260 260 261 260 259 258 257 257 258 260 259 258 260 264 264 264 265 266 265 264 264 264 265 266 266 266 265 266 267 267 267 267 267 268 270 272 272 273 275 274 272 272 272 272 272 273 274 274 272 270 270 270 270 270 273 275 278 281 285 288 288 287 287 290 293 294 293 290 289 289 287 285 284 281 280 282 284 285
257 258 259 259 259 259 259 260 260 260 260 260 261 262 261 260 259 258 258 259 259 258 258 261 263 263 264 264 263 262 261 262 263 264 264 264 265 266 267 266 265 265 265 266 268 270 270 272 273 271 271 272 273 274 277 277 275 272 269 267 268 269 269 272 276 277 279 283 286 287 287 287 288 292 295 294 292 293 294 293 289 285 283 282 281 282 284 286
256 257 258 258 259 259 260 260 260 260 260 260 261 262 262 262 262 262 260 259 259 258 258 259 260 261 262 263 263 263 263 263 264 264 263 264 265 265 264 264 264 264 264 265 268 269 268 268 268 269 270 272 275 278 277 274 270 266 265 267 270 272 275 278 279 279 281 284 285 284 285 287 290 294 294 293 294 296 296 294 289 286 284 282 280 282 284 287
254 255 255 256 257 258 259 259 259 259 260 261 262 263 263 264 263 263 263 261 260 261 261 262 262 262 262 261 262 264 265 266 267 266 264 263 264 264 263 263 264 265 266 266 266 267 267 267 266 267 268 270 274 274 272 271 270 268 268 271 275 277 280 280 279 279 282 283 284 283 285 288 291 291 291 292 294 295 295 293 290 290 287 282 282 284 286 287
Height
5908 5908 5908 5908 5908 5908 5908 5908 5908 5908 5908 5908 5908 5908 5908 5908 5908 5907 5907 5907 5907 5906 5906 5906 5906 5905 5905 5905 5904 5904 5903 5902 5902 5901 5900 5899 5898 5897 5896 5896 5895 5894 5893 5892 5892 5891 5890 5889 5888 5887 5886 5885 5884 5884 5883 5882 5881 5880 5879 5879 5878 5877 5876 5875 5874 5873 5872 5871 5869 5868 5867 5865 5864 5863 5862 5861 5860 5859 5858 5857 5856 5855 5854 5853 5852 5852 5851 5850
5906 5907 5907 5907 5907 5907 5907 5907 5907 5907 5907 5907 5907 5907 5906 5906 5906 5906 5906 5905 5905 5905 5905 5904 5904 5904 5904 5903 5903 5902 5902 5901 5901 5900 5899 5898 5897 5897 5896 5895 5894 5893 5892 5892 5891 5890 5889 5888 5887 5886 5885 5885 5884 5883 5882 5881 5880 5879 5878 5877 5877 5876 5875 5874 5873 5872 5871 5870 5868 5867 5866 5864 5863 5862 5861 5860 5858 5857 5856 5855 5855 5853 5852 5852 5851 5850 5849 5848
5904 5904 5904 5904 5905 5905 5905 5905 5905 5905 5905 5905 5905 5905 5905 5905 5904 5904 5904 5904 5904 5903 5903 5903 5903 5902 5902 5902 5901 5901 5900 5900 5900 5899 5898 5897 5896 5896 5895 5894 5893 5893 5892 5891 5890 5890 5889 5888 5886 5886 5885 5884 5883 5882 5881 5880 5879 5878 5877 5876 5875 5874 5873 5872 5871 5870 5869 5868 5867 5866 5865 5863 5862 5861 5860 5859 5857 5856 5855 5854 5853 5852 5850 5850 5849 5848 5847 5846
5901 5902 5902 5902 5902 5902 5902 5902 5902 5902 5902 5902 5902 5902 5902 5902 5902 5902 5902 5902 5902 5901 5901 5901 5901 5901 5900 5900 5900 5899 5899 5898 5898 5897 5897 5896 5895 5894 5894 5893 5892 5891 5891 5890 5889 5888 5888 5887 5886 5885 5884 5883 5882 5881 5880 5879 5878 5877 5876 5875 5874 5873 5872 5871 5870 5869 5868 5867 5866 5864 5863 5862 5861 5860 5858 5857 5856 5855 5853 5852 5851 5850 5848 5848 5847 5845 5844 5844
5899 5899 5899 5899 5899 5899 5899 5899 5900 5900 5900 5900 5900 5899 5899 5899 5899 5899 5899 5899 5899 5899 5899 5899 5898 5898 5898 5898 5898 5897 5897 5896 5896 5895 5895 5894 5894 5893 5892 5892 5891 5890 5889 5889 5888 5887 5886 5885 5884 5883 5883 5882 5881 5880 5879 5878 5877 5876 5875 5874 5873 5872 5871 5870 5869 5867 5866 5865 5864 5863 5861 5860 5859 5858 5856 5855 5854 5853 5851 5850 5849 5848 5846 5845 5844 5843 5842 5841
5896 5896 5896 5896 5896 5896 5897 5897 5897 5897 5897 5897 5897 5897 5897 5896 5896 5896 5896 5896 5896 5896 5896 5896 5896 5896 5896 5895 5895 5895 5895 5894 5894 5893 5893 5892 5892 5891 5891 5890 5889 5888 5888 5887 5886 5885 5884 5883 5883 5882 5881 5880 5879 5878 5878 5877 5875 5874 5873 5872 5871 5870 5869 5868 5867 5866 5865 5864 5862 5861 5860 5858 5857 5856 5855 5853 5852 5851 5850 5848 5846 5845 5844 5843 5842 5841 5840 5839
5892 5893 5893 5893 5893 5893 5894 5894 5894 5894 5894 5894 5894 5894 5894 5893 5893 5893 5893 5893 5893 5893 5893 5893 5893 5893 5893 5893 5893 5892 5892 5892 5891 5891 5890 5890 5889 5889 5889 5888 5887 5886 5886 5885 5884 5883 5882 5881 5881 5880 5879 5878 5877 5876 5875 5875 5874 5872 5871 5870 5869 5868 5867 5866 5865 5864 5863 5862 5861 5859 5858 5857 5855 5854 5853 5851 5850 5849 5847 5846 5844 5843 5841 5840 5839 5838 5837 5836
5889 5889 5889 5890 5890 5890 5890 5890 5891 5891 5891 5891 5891 5891 5891 5891 5890 5890 5890 5890 5890 5890 5890 5890 5890 5890 5890 5890 5889 5889 5889 5889 5889 5888 5888 5887 5887 5887 5886 5886 5885 5884 5884 5883 5882 5881 5880 5879 5879 5878 5877 5876 5875 5874 5873 5872 5871 5870 5869 5868 5867 5866 5865 5864 5863 5862 5861 5860 5859 5858 5856 5855 5854 5852 5851 5849 5848 5847 5845 5844 5842 5840 5839 5837 5836 5835 5834 5833
5885 5885 5885 5886 5886 5886 5886 5887 5887 5887 5888 5888 5888 5888 5887 5887 5887 5887 5887 5887 5887 5887 5886 5887 5887 5887 5887 5887 5886 5886 5886 5886 5886 5885 5885 5885 5884 5884 5883 5883 5882 5882 5881 5880 5880 5879 5878 5877 5877 5876 5875 5874 5873 5872 5871 5870 5869 5868 5867 5866 5865 5864 5863 5862 5861 5860 5859 5858 5857 5856 5854 5853 5852 5850 5848 5847 5846 5844 5843 5841 5840 5838 5836 5835 5833 5832 5831 5830
5881 5881 5882 5882 5882 5882 5883 5883 5883 5883 5884 5884 5884 5885 5884 5884 5884 5884 5884 5884 5884 5883 5883 5883 5883 5883 5883 5883 5884 5883 5883 5883 5882 5882 5882 5882 5881 5881 5881 5880 5880 5879 5879 5878 5877 5876 5876 5875 5874 5873 5872 5872 5871 5870 5869 5867 5867 5866 5865 5864 5863 5861 5860 5859 5858 5857 5856 5855 5855 5854 5853 5851 5849 5847 5846 5845 5844 5842 5840 5839 5837 5836 5834 5832 5831 5830 5829 5827
5878 5878 5878 5878 5878 5879 5879 5879 5879 5879 5880 5880 5880 5881 5881 5881 5880 5880 5880 5880 5880 5880 5880 5880 5880 5880 5880 5880 5881 5880 5880 5880 5879 5879 5879 5879 5879 5878 5878 5878 5877 5877 5876 5876 5875 5874 5873 5872 5872 5871 5870 5869 5869 5868 5867 5865 5864 5863 5862 5861 5860 5859 5858 5856 5855 5854 5853 5852 5851 5852 5852 5849 5847 5845 5843 5842 5842 5840 5838 5836 5834 5833 5831 5830 5829 5827 5826 5825
5875 5875 5875 5875 5875 5875 5875 5876 5876 5876 5876 5876 5876 5877 5877 5877 5877 5877 5877 5877 5877 5877 5877 5877 5877 5877 5877 5877 5877 5877 5876 5877 5876 5876 5876 5876 5876 5876 5875 5875 5874 5874 5873 5873 5872 5871 5870 5869 5869 5868 5867 5867 5866 5865 5864 5863 5862 5861 5859 5858 5857 5856 5855 5854 5852 5851 5850 5849 5848 5848 5850 5849 5845 5842 5840 5839 5839 5838 5836 5834 5832 5831 5829 5828 5826 5825 5823 5821
5871 5872 5872 5872 5872 5872 5872 5872 5872 5872 5872 5872 5872 5872 5873 5873 5873 5873 5873 5873 5873 5873 5873 5873 5873 5873 5873 5874 5873 5873 5873 5873 5873 5873 5873 5873 5873 5873 5872 5872 5871 5871 5870 5870 5869 5868 5867 5867 5866 5865 5865 5864 5863 5862 5861 5860 5859 5858 5856 5856 5854 5853 5853 5851 5849 5848 5847 5845 5844 5843 5847 5848 5844 5840 5837 5835 5835 5835 5834 5831 5829 5828 5826 5825 5823 5822 5820 5818
5868 5868 5869 5869 5869 5869 5869 5869 5869 5869 5869 5868 5869 5869 5869 5870 5869 5869 5869 5869 5869 5869 5869 5869 5869 5868 5869 5870 5869 5869 5870 5870 5869 5870 5870 5870 5870 5870 5869 5869 5868 5868 5867 5866 5866 5865 5864 5863 5862 5862 5862 5860 5859 5858 5857 5857 5856 5854 5853 5853 5851 5850 5849 5848 5845 5844 5843 5842 5841 5839 5841 5846 5844 5839 5835 5833 5832 5831 5831 5828 5826 5824 5823 5821 5820 5818 5817 5815
5864 5865 5865 5865 5865 5865 5866 5866 5866 5866 5865 5865 5865 5865 5865 5866 5866 5865 5865 5865 5865 5865 5865 5865 5864 5864 5864 5865 5865 5865 5866 5865 5865 5865 5866 5866 5866 5866 5866 5865 5864 5864 5863 5862 5862 5861 5860 5859 5859 5859 5858 5857 5856 5855 5854 5853 5852 5851 5849 5849 5848 5846 5846 5845 5843 5840 5838 5837 5838 5835 5835 5841 5842 5838 5833 5831 5829 5828 5827 5825 5823 5821 5819 5817 5816 5814 5813 5811
5860 5861 5861 5861 5862 5862 5862 5862 5862 5862 5862 5861 5861 5861 5861 5861 5862 5861 5861 5861 5861 5861 5861 5860 5860 5859 5860 5861 5862 5861 5861 5861 5861 5861 5862 5862 5862 5861 5861 5860 5860 5859 5859 5858 5857 5857 5856 5855 5855 5855 5855 5854 5852 5851 5849 5848 5849 5848 5846 5845 5845 5843 5842 5841 5839 5836 5833 5832 5833 5831 5829 5834 5838 5836 5832 5829 5826 5825 5824 5822 5819 5818 5816 5814 5812 5810 5809 5807
5856 5857 5857 5857 5857 5858 5858 5858 5858 5858 5858 5858 5857 5857 5856 5857 5857 5857 5857 5857 5856 5856 5856 5856 5856 5854 5855 5857 5858 5857 5856 5856 5857 5857 5858 5857 5857 5857 5856 5855 5855 5854 5854 5853 5853 5852 5851 5851 5851 5851 5851 5850 5849 5847 5844 5844 5846 5844 5842 5841 5841 5840 5838 5837 5836 5832 5829 5827 5828 5827 5825 5828 5832 5832 5830 5826 5823 5821 5821 5819 5816 5815 5813 5810 5808 5807 5805 5803
5852 5852 5853 5853 5853 5853 5853 5853 5854 5854 5855 5854 5853 5853 5852 5852 5853 5853 5853 5852 5851 5851 5851 5851 5851 5849 5850 5853 5853 5852 5852 5852 5853 5853 5853 5853 5852 5852 5851 5851 5850 5850 5849 5849 5848 5847 5846 5846 5847 5847 5848 5847 5845 5842 5840 5841 5842 5839 5838 5837 5836 5836 5834 5834 5831 5827 5824 5822 5823 5822 5819 5821 5825 5827 5826 5823 5819 5818 5817 5815 5812 5811 5809 5807 5804 5803 5801 5799
5848 5848 5848 5849 5849 5849 5848 5849 5850 5850 5851 5850 5849 5849 5848 5847 5847 5848 5848 5848 5847 5847 5846 5847 5846 5845 5846 5848 5848 5847 5847 5848 5848 5849 5849 5848 5848 5847 5847 5846 5846 5846 5845 5844 5843 5842 5842 5841 5842 5843 5844 5842 5839 5837 5837 5837 5836 5835 5834 5832 5832 5831 5831 5831 5826 5823 5821 5817 5818 5818 5813 5814 5818 5821 5822 5819 5815 5814 5813 5811 5809 5807 5805 5803 5800 5798 5796 5794
5843 5843 5844 5844 5844 5844 5844 5845 5845 5846 5846 5846 5845 5844 5844 5843 5842 5843 5843 5843 5843 5842 5842 5841 5841 5841 5842 5843 5843 5842 5843 5844 5844 5844 5845 5844 5843 5842 5842 5841 5841 5841 5841 5840 5838 5838 5837 5836 5838 5840 5839 5836 5834 5833 5833 5832 5831 5830 5829 5828 5827 5825 5826 5826 5821 5818 5817 5811 5812 5813 5808 5808 5812 5814 5816 5815 5810 5809 5809 5806 5804 5803 5800 5798 5796 5794 5792 5790
5837 5838 5839 5839 5839 5839 5839 5840 5841 5841 5841 5841 5840 5839 5839 5839 5837 5837 5838 5838 5838 5838 5837 5837 5836 5837 5838 5838 5837 5838 5839 5840 5841 5841 5840 5840 5839 5837 5837 5837 5836 5836 5836 5834 5832 5833 5831 5831 5835 5836 5833 5831 5830 5829 5828 5827 5826 5824 5823 5822 5821 5821 5820 5820 5816 5814 5812 5806 5806 5808 5802 5802 5807 5807 5809 5811 5807 5804 5804 5801 5800 5798 5796 5794 5791 5789 5787 5785
5832 5833 5834 5834 5834 5834 5834 5835 5835 5835 5835 5835 5835 5834 5834 5833 5832 5832 5831 5831 5833 5833 5832 5832 5831 5832 5834 5833 5833 5835 5835 5836 5837 5837 5837 5835 5834 5833 5832 5832 5832 5831 5831 5829 5828 5827 5825 5827 5831 5830 5827 5826 5825 5824 5823 5822 5820 5819 5818 5816 5816 5816 5814 5812 5812 5810 5807 5802 5801 5801 5796 5797 5802 5801 5803 5805 5804 5801 5798 5795 5795 5794 5791 5789 5786 5785 5783 5781
5827 5828 5828 5829 5829 5828 5829 5829 5829 5830 5830 5829 5829 5829 5829 5828 5827 5827 5825 5822 5825 5828 5827 5826 5826 5826 5828 5828 5829 5831 5831 5833 5833 5833 5833 5831 5830 5829 5827 5828 5827 5826 5826 5825 5823 5820 5820 5823 5826 5824 5822 5822 5820 5819 5818 5816 5815 5813 5812 5811 5810 5811 5808 5805 5805 5805 5802 5798 5795 5793 5789 5790 5795 5795 5797 5800 5799 5799 5796 5791 5789 5788 5786 5783 5782 5781 5779 5777
5822 5823 5823 5824 5824 5823 5823 5824 5824 5824 5824 5824 5823 5823 5823 5823 5822 5821 5819 5814 5813 5820 5824 5821 5820 5820 5822 5823 5825 5827 5827 5829 5829 5830 5830 5827 5826 5824 5823 5823 5821 5820 5822 5821 5818 5815 5816 5819 5820 5819 5818 5816 5815 5814 5813 5811 5809 5808 5807 5807 5806 5805 5802 5799 5799 5798 5796 5794 5792 5787 5780 5782 5788 5787 5790 5794 5794 5795 5794 5790 5785 5780 5778 5778 5777 5776 5775 5772
5817 5817 5818 5819 5818 5818 5818 5818 5818 5819 5818 5818 5818 5818 5817 5817 5817 5816 5814 5807 5801 5809 5818 5816 5814 5815 5817 5818 5820 5822 5822 5823 5825 5825 5825 5823 5821 5819 5818 5818 5816 5816 5818 5816 5812 5809 5812 5815 5814 5813 5813 5811 5810 5809 5809 5806 5802 5801 5802 5803 5801 5798 5797 5795 5793 5791 5789 5788 5788 5784 5775 5773 5777 5778 5782 5786 5786 5787 5789 5788 5783 5775 5771 5772 5772 5771 5770 5769
5811 5811 5812 5813 5813 5813 5813 5812 5813 5813 5813 5813 5812 5813 5812 5811 5811 5810 5809 5801 5792 5797 5807 5807 5808 5810 5813 5815 5816 5817 5816 5818 5820 5820 5819 5818 5817 5814 5813 5813 5812 5812 5812 5810 5806 5804 5808 5811 5809 5808 5807 5805 5804 5804 5805 5802 5796 5795 5797 5798 5795 5793 5792 5790 5788 5785 5782 5780 5780 5780 5775 5766 5762 5767 5774 5778 5778 5780 5782 5783 5780 5774 5767 5766 5768 5767 5766 5764
5804 5805 5806 5806 5807 5807 5807 5807 5807 5807 5807 5807 5807 5807 5807 5806 5806 5805 5803 5794 5783 5787 5794 5797 5800 5804 5808 5811 5812 5813 5811 5813 5815 5813 5813 5812 5810 5809 5808 5808 5808 5806 5805 5803 5799 5800 5804 5805 5804 5803 5801 5800 5800 5800 5800 5797 5791 5789 5791 5792 5790 5788 5787 5784 5783 5780 5777 5775 5772 5775 5778 5764 5749 5755 5767 5770 5771 5774 5776 5776 5774 5772 5766 5761 5762 5762 5761 5759
5799 5799 5800 5801 5801 5801 5802 5801 5801 5801 5801 5801 5802 5802 5801 5801 5801 5800 5798 5786 5774 5776 5783 5788 5793 5797 5802 5806 5807 5809 5808 5808 5808 5806 5807 5806 5804 5804 5802 5803 5802 5800 5800 5797 5794 5796 5798 5798 5798 5798 5796 5795 5796 5795 5794 5791 5787 5785 5785 5785 5785 5784 5781 5779 5777 5775 5773 5769 5764 5771 5778 5762 5742 5746 5758 5762 5766 5769 5771 5771 5768 5766 5764 5759 5756 5756 5755 5753
5793 5793 5794 5795 5794 5795 5796 5795 5795 5795 5795 5795 5796 5795 5796 5796 5795 5794 5791 5777 5767 5770 5777 5783 5787 5790 5795 5799 5801 5803 5803 5803 5801 5800 5801 5800 5798 5798 5797 5797 5795 5793 5794 5791 5790 5792 5793 5792 5792 5791 5791 5792 5791 5789 5788 5786 5783 5781 5780 5779 5779 5777 5775 5774 5771 5770 5769 5761 5759 5767 5772 5760 5740 5738 5749 5756 5760 5762 5763 5765 5762 5760 5759 5756 5752 5750 5748 5746
5786 5787 5788 5788 5788 5789 5789 5789 5789 5789 5789 5789 5789 5789 5790 5789 5789 5787 5778 5766 5764 5770 5773 5776 5782 5786 5788 5791 5794 5795 5795 5795 5795 5794 5794 5793 5793 5792 5790 5790 5789 5787 5787 5785 5786 5787 5787 5786 5786 5786 5786 5786 5785 5784 5783 5781 5779 5777 5776 5774 5773 5771 5769 5767 5765 5765 5763 5755 5756 5762 5764 5758 5741 5732 5743 5751 5753 5755 5757 5757 5756 5754 5752 5750 5747 5744 5742 5739
5780 5781 5782 5782 5782 5782 5782 5783 5782 5782 5783 5783 5782 5783 5783 5782 5782 5775 5763 5759 5766 5770 5770 5772 5776 5780 5782 5783 5784 5786 5787 5787 5788 5788 5787 5786 5786 5784 5784 5784 5783 5781 5780 5779 5781 5782 5781 5780 5780 5780 5780 5780 5780 5779 5777 5776 5774 5773 5771 5769 5767 5765 5762 5760 5760 5761 5757 5751 5753 5755 5754 5751 5738 5731 5741 5746 5744 5748 5751 5751 5751 5749 5746 5743 5740 5738 5737 5733
5773 5773 5775 5776 5775 5775 5775 5775 5776 5776 5776 5775 5776 5776 5775 5775 5770 5761 5756 5761 5764 5764 5767 5771 5772 5773 5774 5774 5775 5777 5778 5779 5780 5780 5780 5779 5778 5777 5777 5777 5776 5775 5773 5774 5775 5775 5774 5774 5774 5773 5774 5775 5774 5773 5771 5770 5769 5768 5766 5765 5762 5758 5755 5754 5755 5754 5750 5747 5748 5747 5744 5738 5730 5731 5739 5739 5738 5741 5743 5745 5745 5744 5741 5737 5734 5732 5730 5727
5765 5766 5767 5768 5767 5767 5768 5768 5769 5769 5768 5768 5769 5768 5769 5765 5756 5752 5757 5761 5760 5760 5764 5766 5765 5766 5766 5766 5768 5768 5769 5770 5771 5772 5772 5772 5770 5770 5770 5769 5770 5769 5768 5768 5768 5766 5766 5767 5767 5767 5769 5769 5767 5766 5765 5763 5763 5761 5759 5759 5756 5753 5750 5749 5750 5746 5741 5741 5742 5739 5734 5727 5724 5730 5733 5729 5731 5735 5737 5738 5738 5737 5735 5731 5729 5727 5724 5721
5757 5757 5759 5760 5760 5760 5760 5759 5761 5761 5760 5761 5761 5761 5761 5754 5747 5750 5756 5758 5758 5759 5759 5758 5758 5759 5758 5758 5758 5760 5761 5761 5762 5762 5763 5763 5762 5762 5763 5763 5763 5763 5762 5761 5760 5760 5759 5759 5761 5762 5762 5762 5761 5760 5759 5757 5755 5753 5753 5752 5748 5748 5747 5744 5743 5738 5734 5735 5733 5729 5725 5721 5721 5724 5722 5719 5722 5729 5732 5732 5731 5730 5728 5726 5724 5721 5718 5715
5748 5749 5750 5751 5752 5753 5752 5751 5752 5753 5752 5753 5752 5751 5751 5746 5745 5749 5751 5751 5753 5753 5752 5752 5752 5752 5750 5749 5750 5753 5754 5753 5753 5754 5753 5753 5754 5754 5755 5756 5757 5757 5756 5754 5753 5753 5751 5750 5753 5753 5753 5755 5754 5753 5752 5750 5747 5745 5746 5743 5741 5744 5743 5738 5735 5733 5731 5728 5724 5720 5717 5717 5719 5717 5713 5712 5716 5723 5726 5725 5724 5723 5721 5719 5717 5714 5712 5709
5739 5739 5740 5742 5745 5745 5743 5742 5744 5743 5743 5744 5741 5740 5743 5744 5744 5744 5744 5744 5744 5744 5745 5746 5746 5745 5743 5742 5743 5745 5746 5745 5746 5745 5744 5745 5746 5746 5747 5749 5751 5750 5749 5748 5746 5746 5743 5741 5745 5744 5743 5746 5745 5744 5745 5742 5739 5738 5737 5736 5737 5738 5735 5729 5727 5728 5727 5721 5718 5716 5710 5711 5713 5707 5704 5708 5713 5718 5721 5719 5718 5716 5714 5712 5709 5707 5706 5703
5731 5730 5730 5734 5737 5736 5734 5735 5734 5733 5733 5732 5729 5733 5739 5740 5739 5738 5737 5736 5736 5737 5737 5737 5737 5737 5735 5734 5735 5737 5738 5737 5737 5736 5737 5737 5736 5738 5740 5741 5743 5743 5743 5741 5738 5738 5736 5734 5737 5736 5733 5735 5736 5736 5736 5734 5732 5731 5730 5731 5731 5728 5725 5723 5721 5721 5719 5713 5712 5713 5708 5705 5704 5697 5696 5703 5708 5712 5714 5713 5711 5709 5707 5705 5702 5701 5699 5697
5722 5720 5719 5725 5729 5727 5726 5725 5723 5723 5723 5719 5720 5727 5731 5731 5733 5733 5730 5729 5730 5730 5728 5727 5727 5727 5726 5726 5727 5728 5729 5728 5728 5728 5729 5729 5727 5729 5732 5734 5734 5735 5737 5734 5729 5730 5729 5725 5727 5728 5725 5726 5728 5727 5726 5725 5725 5724 5724 5724 5722 5719 5717 5717 5715 5712 5711 5706 5703 5706 5706 5699 5694 5692 5693 5698 5704 5706 5706 5705 5703 5701 5699 5697 5696 5695 5692 5690
5713 5708 5708 5718 5720 5717 5717 5715 5713 5713 5710 5708 5712 5718 5722 5724 5726 5723 5721 5722 5723 5721 5719 5718 5719 5718 5718 5719 5719 5720 5720 5719 5721 5721 5720 5720 5718 5720 5724 5725 5726 5728 5729 5726 5721 5722 5721 5715 5716 5719 5718 5718 5719 5718 5717 5718 5718 5716 5714 5713 5712 5710 5708 5708 5707 5705 5703 5699 5695 5698 5697 5688 5685 5686 5689 5697 5704 5702 5699 5699 5697 5693 5691 5689 5688 5687 5685 5682
5704 5698 5698 5710 5710 5705 5706 5704 5702 5701 5698 5700 5706 5710 5713 5715 5715 5715 5714 5714 5714 5713 5711 5711 5711 5709 5709 5711 5711 5712 5712 5710 5712 5713 5711 5712 5712 5712 5715 5716 5718 5720 5719 5716 5713 5712 5710 5706 5706 5710 5709 5708 5710 5712 5712 5712 5709 5706 5705 5704 5703 5703 5701 5698 5697 5697 5695 5691 5690 5689 5684 5680 5679 5680 5686 5695 5698 5695 5694 5694 5692 5689 5685 5682 5680 5679 5676 5673
5695 5686 5688 5701 5700 5696 5695 5689 5687 5689 5688 5692 5698 5701 5703 5704 5706 5708 5706 5705 5706 5705 5704 5703 5702 5702 5702 5703 5703 5704 5703 5701 5703 5703 5702 5704 5705 5705 5708 5709 5710 5711 5709 5706 5704 5703 5700 5697 5696 5698 5699 5700 5704 5706 5705 5702 5699 5696 5695 5696 5696 5696 5695 5689 5685 5689 5688 5684 5683 5679 5670 5671 5675 5677 5686 5691 5686 5685 5687 5686 5685 5684 5679 5675 5674 5671 5668 5666
5683 5677 5680 5689 5688 5687 5685 5676 5676 5679 5678 5683 5689 5690 5691 5693 5696 5698 5696 5696 5697 5695 5695 5695 5695 5695 5694 5695 5696 5696 5694 5692 5694 5693 5692 5695 5697 5699 5702 5702 5701 5702 5700 5696 5696 5696 5692 5686 5685 5686 5688 5692 5696 5698 5696 5692 5690 5687 5686 5689 5691 5689 5687 5682 5678 5681 5681 5676 5675 5667 5657 5662 5671 5678 5686 5685 5679 5678 5678 5677 5678 5676 5672 5670 5667 5663 5660 5658
5673 5670 5672 5674 5674 5677 5673 5664 5665 5667 5669 5676 5679 5678 5680 5681 5684 5687 5687 5687 5686 5686 5687 5687 5688 5688 5688 5689 5689 5687 5686 5684 5684 5684 5684 5686 5690 5693 5695 5694 5692 5692 5691 5687 5687 5687 5682 5676 5675 5675 5676 5682 5687 5688 5687 5683 5680 5678 5679 5683 5683 5680 5680 5676 5671 5672 5669 5666 5665 5654 5644 5652 5667 5676 5680 5678 5674 5673 5671 5670 5670 5667 5664 5663 5659 5655 5652 5650
5664 5662 5660 5659 5660 5662 5659 5654 5655 5657 5661 5667 5666 5666 5670 5669 5672 5679 5680 5678 5677 5677 5678 5678 5679 5679 5680 5681 5680 5679 5680 5676 5674 5677 5676 5677 5682 5686 5686 5685 5683 5682 5681 5679 5677 5676 5672 5667 5666 5665 5663 5669 5675 5676 5676 5675 5673 5672 5673 5675 5674 5673 5672 5666 5663 5662 5655 5654 5656 5644 5634 5645 5662 5670 5671 5670 5667 5665 5665 5664 5661 5659 5658 5655 5651 5647 5645 5643
5654 5651 5648 5647 5645 5644 5644 5648 5649 5646 5650 5655 5653 5657 5660 5656 5662 5671 5671 5668 5669 5669 5667 5667 5668 5670 5671 5672 5671 5671 5671 5669 5668 5668 5668 5670 5674 5677 5677 5674 5674 5673 5672 5670 5666 5664 5661 5658 5657 5656 5651 5654 5661 5665 5668 5667 5665 5663 5665 5666 5665 5665 5663 5657 5656 5652 5642 5642 5647 5638 5628 5637 5654 5662 5662 5661 5657 5657 5660 5657 5652 5651 5649 5645 5642 5639 5637 5635
5642 5638 5636 5636 5633 5628 5631 5641 5642 5635 5638 5645 5642 5644 5649 5648 5654 5662 5659 5657 5661 5661 5657 5655 5658 5660 5660 5662 5662 5661 5662 5663 5660 5658 5660 5664 5666 5667 5666 5664 5665 5664 5662 5661 5657 5653 5649 5646 5646 5645 5641 5642 5648 5656 5660 5657 5652 5652 5655 5657 5657 5656 5655 5651 5646 5641 5635 5633 5634 5634 5630 5630 5641 5652 5653 5651 5650 5650 5651 5648 5643 5643 5640 5635 5633 5631 5629 5627
5627 5623 5625 5628 5624 5617 5617 5627 5633 5629 5630 5633 5628 5630 5638 5640 5643 5647 5646 5647 5652 5651 5645 5645 5649 5650 5650 5653 5652 5650 5653 5655 5650 5648 5654 5659 5659 5656 5654 5653 5654 5655 5654 5652 5647 5642 5636 5633 5636 5636 5633 5634 5638 5645 5650 5646 5640 5641 5644 5645 5647 5647 5646 5643 5636 5633 5634 5624 5618 5629 5634 5625 5628 5640 5642 5643 5645 5643 5641 5638 5634 5632 5630 5627 5625 5622 5621 5619
5612 5610 5615 5619 5614 5606 5605 5613 5623 5623 5619 5617 5614 5617 5624 5627 5629 5633 5637 5641 5640 5638 5635 5635 5640 5643 5643 5646 5643 5639 5643 5644 5639 5642 5647 5649 5649 5645 5641 5642 5643 5643 5643 5640 5636 5633 5625 5622 5627 5627 5623 5626 5629 5632 5638 5636 5630 5630 5632 5634 5637 5637 5637 5635 5628 5628 5628 5615 5609 5622 5629 5620 5620 5629 5632 5635 5637 5633 5630 5629 5626 5623 5621 5618 5615 5613 5612 5610
5602 5600 5603 5605 5600 5597 5598 5602 5609 5608 5604 5603 5602 5603 5610 5616 5618 5624 5630 5629 5624 5627 5628 5625 5630 5637 5638 5638 5634 5628 5631 5633 5630 5635 5638 5636 5636 5633 5630 5631 5632 5631 5631 5627 5626 5624 5615 5612 5620 5619 5612 5615 5620 5621 5625 5625 5621 5621 5623 5623 5626 5628 5629 5625 5620 5622 5620 5610 5607 5613 5613 5610 5616 5623 5624 5626 5626 5622 5620 5620 5619 5616 5612 5607 5604 5603 5603 5602
5592 5591 5592 5591 5585 5586 5589 5591 5593 5592 5591 5593 5590 5591 5600 5605 5608 5616 5620 5615 5611 5616 5618 5615 5621 5629 5628 5626 5621 5615 5619 5624 5623 5626 5628 5623 5622 5622 5619 5619 5621 5620 5618 5617 5616 5614 5608 5606 5611 5610 5601 5601 5610 5614 5615 5614 5612 5611 5611 5614 5618 5621 5620 5616 5614 5616 5614 5606 5605 5604 5597 5599 5612 5619 5617 5615 5615 5614 5612 5610 5609 5608 5603 5597 5593 5594 5595 5593
5581 5581 5582 5579 5572 5574 5577 5579 5581 5578 5577 5578 5578 5582 5589 5592 5600 5608 5605 5601 5600 5602 5606 5608 5612 5617 5615 5610 5607 5607 5614 5618 5614 5615 5616 5611 5608 5608 5607 5608 5610 5607 5607 5609 5607 5604 5601 5599 5602 5601 5589 5587 5601 5606 5602 5602 5599 5594 5597 5608 5614 5614 5612 5610 5608 5608 5607 5601 5598 5594 5587 5591 5605 5611 5607 5605 5606 5604 5602 5600 5598 5598 5596 5589 5584 5585 5587 5585
5569 5567 5571 5568 5560 5561 5566 5568 5569 5565 5562 5566 5571 5575 5576 5580 5591 5595 5587 5584 5590 5594 5599 5601 5601 5601 5598 5595 5599 5605 5610 5608 5602 5601 5601 5597 5595 5594 5593 5597 5598 5595 5596 5599 5597 5595 5594 5591 5592 5591 5579 5577 5591 5594 5590 5589 5578 5573 5589 5605 5608 5605 5603 5601 5599 5600 5600 5596 5589 5584 5583 5589 5597 5598 5594 5595 5596 5593 5589 5587 5587 5588 5586 5581 5577 5579 5579 5577